Tracking 17857 objects as of 1-October-2016
HD Live streaming from Space Station
objects crossing your sky now

SL-16 DEB

Track SL-16 DEB now!
10-day predictions


NORAD ID: 22336
Int'l Code: 1992-093Z
Perigee: 838.5 km
Apogee: 1,015.7 km
Inclination: 71.1 °
Period: 103.4 minutes
Semi major axis: 7298 km
RCS: 0.2247 m2 (medium)
Launch date: December 25, 1992
Source: Commonwealth of Independent States (former USSR) (CIS)
Launch site: TYURATAM MISSILE AND SPACE COMPLEX (TTMTR)

Note: This is SATELLITE DEBRIS
Your satellite tracking list
Your tracking list is empty





NASA's NSSDC Master Catalog

Two Line Element Set (TLE):
1 22336U 92093Z   16274.89747368  .00000142  00000-0  13662-3 0  9999
2 22336  71.1319 159.0691 0121417 254.2500 190.2730 13.92488629203813
Source of the keplerian elements: AFSPC

N2YO: 929